Preview of NWS' New Version of Forecast
This preview is not operational and should not be used for support decisions.

Regional Weather Roundup (RWR)

Issued by Philadelphia/Mt Holly (PHI)

                            
000
ASUS41 KPHI 221012
RWRPHI

REGIONAL WEATHER ROUNDUP
NATIONAL WEATHER SERVICE MOUNT HOLLY NJ
600 AM EDT FRI MAR 22 2019

NOTE:  "FAIR" INDICATES FEW OR NO CLOUDS BELOW 12,000 FEET WITH NO
SIGNIFICANT WEATHER AND/OR OBSTRUCTIONS TO VISIBILITY.

 * = STATION DOES NOT REPORT PRECIPITATION (E.G. RAIN, SNOW, ETC.) 
        OR FOG.

NJZ015>026-221100-
SOUTHERN NEW JERSEY
  
CITY           SKY/WX    TMP DP  RH WIND       PRES   REMARKS
POMONA         LGT RAIN  45  45 100 NW21G31   29.29R FOG              
WILDWOOD*      LGT RAIN  43  42  97 NW14G28   29.37R FOG              
MILLVILLE      LGT RAIN  42  40  92 NW17G25   29.36R                  
MOUNT HOLLY    LGT RAIN  42  39  89 NW16G32   29.34R FOG              
TRENTON        LGT RAIN  42  40  92 NW14G25   29.33R                  

$$
NJZ001>014-221100-
NORTHERN NEW JERSEY
  
CITY           SKY/WX    TMP DP  RH WIND       PRES   REMARKS
SUSSEX         RAIN      40  37  89 NW7       29.39S FOG              
ANDOVER*         N/A     37  34  89 N10G20    29.39R WCI  30          
MORRISTOWN     HVY RAIN  41  41 100 N12G21    29.33F                  
NEWARK         LGT RAIN  44  43  96 N18G25    29.31R FOG              
TETERBORO      LGT RAIN  44  42  93 N10       29.32R FOG              
CALDWELL       LGT RAIN  41  40  96 N9        29.34R FOG              
SOMERVILLE     RAIN      42  39  89 N12       29.33R FOG              
ALLAIRE*       LGT RAIN  44  43  96 W12       29.25F                  
TOMS RIVER*    LGT RAIN  45  45 100 NW14      29.28R FOG              

$$
PAZ043-044-047-054-055-060>062-066>071-221100-
EASTERN PENNSYLVANIA
  
CITY           SKY/WX    TMP DP  RH WIND       PRES   REMARKS
PHILADELPHIA   LGT RAIN  42  38  85 NW24G41   29.39R                  
NORTH PHILA    CLOUDY    42  37  82 NW18G30   29.38R HAZE             
BLUE BELL*     CLOUDY    37  37 100 NW7G28    29.41R WCI  32          
DOYLESTOWN     LGT RAIN  39  35  86 NW14G30   29.37R WCI  31          
QUAKERTOWN*    CLOUDY    39  37  93 NW12G22   29.41R WCI  32          
PERKASIE*      RAIN      37  37 100 NW17G26   29.40R WCI  28          
POTTSTOWN      RAIN      39  37  92 NW13G24   29.44R FOG     WCI  31  
LANCASTER      LGT RAIN  42  38  85 NW15      29.48R                  
COATESVILLE    LGT RAIN  37  36  93 NW18G28   29.45R WCI  27          
READING        RAIN      40  38  93 NW14      29.46R WCI  32          
ALLENTOWN      RAIN      41  35  79 NW14      29.42R                  
MOUNT POCONO   FLURRIES  33  33 100 NW17G28   29.38F WCI  22          
HAZLETON       LGT SNOW  34  32  93 NW8       29.48S WCI  27          
LEHIGHTON      RAIN      37  34  87 NW10G18   29.45S WCI  30          
WILKES BARRE   LGT SNOW  35  33  92 VRB6      29.48S FOG     WCI  30  

$$
DEZALL-MDZ008-012-015-019-020-221100-
DELAWARE AND EASTERN MARYLAND
  
CITY           SKY/WX    TMP DP  RH WIND       PRES   REMARKS
WILMINGTON     LGT RAIN  42  38  85 NW22G32   29.42R                  
GEORGETOWN     LGT RAIN  45  40  82 W16G30    29.44R                  
EASTON         CLOUDY    45  41  87 W17G26    29.53R                  
PATUXENT       CLOUDY    46  41  82 W21G32    29.55                   
OCEAN CITY     LGT RAIN  43  41  93 NW20G28   29.43R                  
WALLOPS ISLAND LGT RAIN  46  41  82 W23G39    29.48R                  
CAMBRIDGE      CLOUDY    45  41  87 NW21G29   29.50S                  
SALISBURY      LGT RAIN  43  41  93 W16G30    29.47R                  

$$
PAZ001-021-NYZ056-072-MDZ011-DCZ001-221100-
OTHER NEARBY LOCATIONS
  
CITY           SKY/WX    TMP DP  RH WIND       PRES   REMARKS
HARRISBURG     LGT RAIN  43  38  82 NW20      29.51S                  
STATE COLLEGE  CLOUDY    37  32  81 NW15G22   29.60S WCI  28          
WILLIAMSPORT   CLOUDY    40  37  89 W12       29.54F WCI  33          
BINGHAMTON     LGT SNOW  32  32 100 N7        29.49S FOG     WCI  26  
NEW YORK CITY  LGT RAIN  44  42  93 NE6G17    29.33S FOG              
BALTIMORE      MOCLDY    44  38  79 W18G32    29.51R                  
WASHINGTON DC  CLOUDY    47  38  71 NW21G29   29.58R                  

$$